• en France
  • Liste des pays
  • À 7 jours
  • Température de l'eau
  • Carte satellitaire
  • Carte météo
  • Widgets météo
  • user-avatar
    Se connecter

    Météo par heure à Kardjali

    Ce jour, 17 Janvier, Mercredi

    Heure Température Précipitation Vent Pression Humidité
    00:00 +3°C° 0 mm 2 m/s 722 mmHg 88%
    01:00 +3°C° 0 mm 2 m/s 722 mmHg 87%
    02:00 +3°C° 0 mm 2 m/s 722 mmHg 87%
    03:00 +3°C° 0 mm 2 m/s 721 mmHg 87%
    04:00 +3°C° 0 mm 2 m/s 721 mmHg 87%
    05:00 +3°C° 0 mm 2 m/s 720 mmHg 86%
    06:00 +3°C° 0 mm 2 m/s 720 mmHg 86%
    07:00 +3°C° 0 mm 2 m/s 720 mmHg 86%
    08:00 +3°C° 0 mm 2 m/s 719 mmHg 85%
    09:00 +4°C° 0 mm 3 m/s 719 mmHg 80%
    10:00 +7°C° 0 mm 3 m/s 719 mmHg 75%
    11:00 +7°C° 0 mm 4 m/s 719 mmHg 70%
    12:00 +8°C° 0 mm 5 m/s 718 mmHg 69%
    13:00 +9°C° 0 mm 6 m/s 716 mmHg 68%
    14:00 +10°C° 0 mm 6 m/s 715 mmHg 68%
    15:00 +9°C° 0 mm 6 m/s 714 mmHg 72%
    16:00 +8°C° 0 mm 6 m/s 713 mmHg 76%
    17:00 +8°C° 0 mm 6 m/s 712 mmHg 80%
    18:00 +8°C° 0,2 mm 7 m/s 712 mmHg 82%
    19:00 +7°C° 0,2 mm 8 m/s 711 mmHg 83%
    20:00 +7°C° 0,2 mm 8 m/s 710 mmHg 85%
    21:00 +7°C° 0,6 mm 8 m/s 710 mmHg 82%
    22:00 +8°C° 0,6 mm 7 m/s 710 mmHg 80%
    23:00 +7°C° 0,6 mm 6 m/s 710 mmHg 77%

    Demain, 18 Janvier, Jeudi

    Heure Température Précipitation Vent Pression Humidité
    00:00 +5°C° 0 mm 6 m/s 711 mmHg 75%
    01:00 +4°C° 0 mm 6 m/s 712 mmHg 73%
    02:00 +3°C° 0 mm 6 m/s 712 mmHg 72%
    03:00 +2°C° 0 mm 7 m/s 713 mmHg 68%
    04:00 0°C° 0 mm 7 m/s 713 mmHg 65%
    05:00 -1°C° 0 mm 8 m/s 714 mmHg 61%
    06:00 -1°C° 0 mm 8 m/s 715 mmHg 59%
    07:00 -1°C° 0 mm 9 m/s 716 mmHg 56%
    08:00 -3°C° 0 mm 9 m/s 717 mmHg 54%
    09:00 -2°C° 0 mm 10 m/s 718 mmHg 51%
    10:00 -2°C° 0 mm 10 m/s 719 mmHg 47%
    11:00 -1°C° 0 mm 11 m/s 721 mmHg 44%
    12:00 -1°C° 0 mm 11 m/s 721 mmHg 43%
    13:00 +1°C° 0 mm 11 m/s 722 mmHg 42%
    14:00 +1°C° 0 mm 10 m/s 722 mmHg 41%
    15:00 +1°C° 0 mm 9 m/s 723 mmHg 44%
    16:00 0°C° 0 mm 7 m/s 723 mmHg 47%
    17:00 +1°C° 0 mm 5 m/s 724 mmHg 50%
    18:00 0°C° 0 mm 5 m/s 725 mmHg 51%
    19:00 -1°C° 0 mm 4 m/s 725 mmHg 53%
    20:00 -1°C° 0 mm 4 m/s 726 mmHg 55%
    21:00 -1°C° 0 mm 3 m/s 726 mmHg 54%
    22:00 -1°C° 0 mm 3 m/s 726 mmHg 54%
    23:00 -1°C° 0 mm 2 m/s 726 mmHg 53%

    Après-demain, 19 Janvier, Vendredi

    Heure Température Précipitation Vent Pression Humidité
    00:00 -1°C° 0 mm 2 m/s 726 mmHg 53%
    01:00 -1°C° 0 mm 3 m/s 726 mmHg 53%
    02:00 -1°C° 0 mm 3 m/s 726 mmHg 54%
    03:00 -1°C° 0 mm 3 m/s 725 mmHg 54%
    04:00 0°C° 0 mm 3 m/s 725 mmHg 54%
    05:00 0°C° 0 mm 3 m/s 725 mmHg 54%
    06:00 0°C° 0 mm 3 m/s 725 mmHg 54%
    07:00 0°C° 0 mm 3 m/s 725 mmHg 53%
    08:00 0°C° 0 mm 3 m/s 725 mmHg 53%
    09:00 +2°C° 0 mm 3 m/s 725 mmHg 51%
    10:00 +4°C° 0 mm 4 m/s 725 mmHg 48%
    11:00 +6°C° 0 mm 4 m/s 725 mmHg 46%
    12:00 +7°C° 0 mm 4 m/s 725 mmHg 46%
    13:00 +8°C° 0 mm 4 m/s 725 mmHg 46%
    14:00 +8°C° 0 mm 4 m/s 724 mmHg 46%
    15:00 +7°C° 0 mm 4 m/s 724 mmHg 51%
    16:00 +7°C° 0 mm 3 m/s 724 mmHg 56%
    17:00 +5°C° 0 mm 3 m/s 724 mmHg 61%
    18:00 +4°C° 0 mm 3 m/s 724 mmHg 64%
    19:00 +4°C° 0 mm 3 m/s 724 mmHg 66%
    20:00 +3°C° 0 mm 3 m/s 724 mmHg 69%
    21:00 +3°C° 0 mm 3 m/s 724 mmHg 69%
    22:00 +3°C° 0 mm 3 m/s 724 mmHg 69%
    23:00 +3°C° 0 mm 3 m/s 724 mmHg 70%

    20 Janvier, Samedi

    Heure Température Précipitation Vent Pression Humidité
    00:00 +3°C° 0 mm 3 m/s 724 mmHg 72%
    01:00 +4°C° 0 mm 2 m/s 724 mmHg 74%
    02:00 +4°C° 0 mm 2 m/s 724 mmHg 76%
    03:00 +4°C° 0 mm 2 m/s 724 mmHg 79%
    04:00 +4°C° 0 mm 2 m/s 723 mmHg 81%
    05:00 +4°C° 0 mm 2 m/s 723 mmHg 83%
    06:00 +3°C° 0 mm 3 m/s 723 mmHg 85%
    07:00 +4°C° 0 mm 3 m/s 723 mmHg 86%
    08:00 +4°C° 0 mm 3 m/s 723 mmHg 87%
    09:00 +5°C° 0 mm 4 m/s 723 mmHg 84%
    10:00 +7°C° 0 mm 5 m/s 723 mmHg 81%
    11:00 +9°C° 0 mm 5 m/s 723 mmHg 78%
    12:00 +9°C° 0 mm 6 m/s 722 mmHg 76%
    13:00 +10°C° 0 mm 6 m/s 721 mmHg 74%
    14:00 +10°C° 0 mm 6 m/s 721 mmHg 72%
    15:00 +10°C° 0 mm 6 m/s 720 mmHg 75%
    16:00 +9°C° 0 mm 5 m/s 720 mmHg 78%
    17:00 +8°C° 0 mm 5 m/s 720 mmHg 81%
    18:00 +8°C° 0,1 mm 6 m/s 719 mmHg 83%
    19:00 +8°C° 0,1 mm 7 m/s 719 mmHg 84%
    20:00 +8°C° 0,1 mm 7 m/s 719 mmHg 85%
    21:00 +7°C° 0,1 mm 8 m/s 718 mmHg 84%
    22:00 +8°C° 0,1 mm 9 m/s 718 mmHg 83%
    23:00 +8°C° 0,1 mm 10 m/s 717 mmHg 82%

    21 Janvier, Dimanche

    Heure Température Précipitation Vent Pression Humidité
    00:00 +8°C° 0,6 mm 10 m/s 717 mmHg 81%
    01:00 +8°C° 0,6 mm 11 m/s 716 mmHg 81%
    02:00 +8°C° 0,6 mm 11 m/s 716 mmHg 80%
    03:00 +8°C° 1,3 mm 11 m/s 715 mmHg 80%
    04:00 +8°C° 1,3 mm 12 m/s 715 mmHg 79%
    05:00 +8°C° 1,3 mm 12 m/s 714 mmHg 79%
    06:00 +8°C° 1,7 mm 12 m/s 714 mmHg 79%
    07:00 +8°C° 1,7 mm 12 m/s 714 mmHg 79%
    08:00 +8°C° 1,7 mm 12 m/s 714 mmHg 80%
    09:00 +8°C° 1,8 mm 12 m/s 713 mmHg 79%
    10:00 +8°C° 1,8 mm 11 m/s 713 mmHg 78%
    11:00 +8°C° 1,8 mm 11 m/s 713 mmHg 78%
    12:00 +7°C° 1,9 mm 10 m/s 712 mmHg 80%
    13:00 +7°C° 1,9 mm 8 m/s 712 mmHg 83%
    14:00 +6°C° 1,9 mm 7 m/s 711 mmHg 85%
    15:00 +4°C° 1,4 mm 6 m/s 712 mmHg 85%
    16:00 +3°C° 1,4 mm 5 m/s 712 mmHg 85%
    17:00 +1°C° 1,4 mm 4 m/s 712 mmHg 84%
    18:00 +1°C° 0,2 mm 4 m/s 713 mmHg 83%
    19:00 +1°C° 0,2 mm 4 m/s 713 mmHg 82%
    20:00 0°C° 0,2 mm 4 m/s 714 mmHg 81%
    21:00 0°C° 0,1 mm 4 m/s 714 mmHg 79%
    22:00 0°C° 0,1 mm 4 m/s 715 mmHg 77%
    23:00 -1°C° 0,1 mm 5 m/s 715 mmHg 76%

    22 Janvier, Lundi

    Heure Température Précipitation Vent Pression Humidité
    00:00 -1°C° 0,1 mm 5 m/s 715 mmHg 75%
    01:00 -1°C° 0,1 mm 5 m/s 715 mmHg 74%
    02:00 -1°C° 0,1 mm 5 m/s 715 mmHg 73%
    03:00 -2°C° 0 mm 4 m/s 715 mmHg 73%
    04:00 -2°C° 0 mm 4 m/s 716 mmHg 74%
    05:00 -1°C° 0 mm 3 m/s 716 mmHg 74%
    06:00 -1°C° 0 mm 3 m/s 717 mmHg 74%
    07:00 -1°C° 0 mm 3 m/s 718 mmHg 75%
    08:00 -2°C° 0 mm 2 m/s 718 mmHg 75%
    09:00 -1°C° 0 mm 3 m/s 719 mmHg 72%
    10:00 0°C° 0 mm 3 m/s 720 mmHg 69%
    11:00 0°C° 0 mm 4 m/s 721 mmHg 66%
    12:00 0°C° 0,1 mm 4 m/s 721 mmHg 65%
    13:00 0°C° 0,1 mm 4 m/s 721 mmHg 65%
    14:00 0°C° 0,1 mm 5 m/s 721 mmHg 64%
    15:00 0°C° 0 mm 4 m/s 722 mmHg 65%
    16:00 -1°C° 0 mm 4 m/s 722 mmHg 67%
    17:00 -1°C° 0 mm 4 m/s 723 mmHg 68%
    18:00 -2°C° 0 mm 4 m/s 724 mmHg 69%
    19:00 -3°C° 0 mm 4 m/s 724 mmHg 69%
    20:00 -3°C° 0 mm 4 m/s 725 mmHg 70%
    21:00 -3°C° 0 mm 4 m/s 725 mmHg 69%
    22:00 -4°C° 0 mm 4 m/s 725 mmHg 69%
    23:00 -4°C° 0 mm 4 m/s 726 mmHg 68%
    Voir plus